Theta_e
305 305 305 302 304 303 302 302 302 302 304 309 313 313 310 315 318 324 326 326 326 328 328 331 331 330 329 329 327 327 327 327 327 325 323 325 324 324 323 325 327 327 326 326
305 306 303 303 302 302 302 303 304 303 304 305 305 310 314 315 314 320 324 327 327 328 329 329 330 329 329 328 327 326 326 327 327 324 322 323 322 320 321 325 324 324 325 324
306 304 302 303 304 304 304 304 304 304 304 304 306 311 312 315 320 319 320 323 326 327 330 330 330 328 326 327 327 328 328 328 326 324 323 321 319 318 316 317 319 321 322 322
306 305 305 305 305 304 307 304 303 304 306 307 306 311 312 314 320 320 323 323 325 326 327 329 330 329 327 326 326 327 326 325 325 325 320 320 320 316 314 319 319 320 319 317
305 305 305 308 305 305 306 305 304 304 307 307 307 312 312 314 317 319 321 324 326 327 328 328 330 329 328 327 327 326 325 323 324 323 323 322 322 319 318 320 317 316 314 310
306 304 304 305 305 305 305 306 306 307 308 309 307 307 311 318 319 319 320 322 324 326 329 328 328 329 328 328 327 326 325 323 324 323 323 323 321 315 313 312 312 310 308 305
302 303 307 306 309 308 308 306 305 308 311 308 306 308 310 313 317 317 318 319 323 326 329 329 330 329 328 328 328 327 326 325 324 323 323 322 320 321 320 318 313 310 304 300
303 303 307 304 308 308 308 307 306 306 310 309 307 312 315 312 312 319 317 318 322 325 330 330 330 329 327 327 327 327 327 326 323 322 321 320 322 320 319 315 312 306 302 298
301 302 303 305 305 309 308 309 306 312 317 315 321 321 319 321 318 318 322 323 322 323 329 329 330 328 328 327 326 327 326 326 323 321 320 318 319 318 318 312 308 304 301 298
301 303 302 306 304 307 307 306 308 313 316 322 321 323 324 324 323 322 323 325 325 325 330 329 329 328 327 326 326 326 326 324 323 321 318 318 319 316 314 310 305 303 299 295
300 303 304 306 310 311 311 309 310 308 311 321 323 322 320 320 320 321 321 324 326 329 329 327 326 325 324 323 324 325 325 322 320 316 313 314 312 309 307 304 300 299 295 294
299 301 304 307 306 307 312 313 311 317 323 320 323 325 316 318 317 320 321 325 326 327 321 317 313 312 312 310 312 313 313 312 310 309 309 307 304 304 302 300 298 295 296 302
299 301 307 307 310 308 311 313 314 314 316 324 327 325 313 314 316 321 319 315 312 309 307 306 305 304 302 301 302 303 305 304 304 304 303 300 298 297 296 296 299 303 303 302
297 301 306 305 306 305 309 311 315 319 323 322 319 319 313 313 312 313 311 310 308 306 305 304 303 301 300 299 299 298 298 299 299 300 300 300 300 300 301 301 301 301 301 302
297 298 302 301 302 308 308 310 311 313 312 317 316 313 310 311 310 309 308 307 306 305 304 303 302 301 300 299 299 299 299 300 299 299 298 298 299 300 301 300 300 301 305 305
296 299 299 302 309 308 307 304 307 306 305 311 311 310 304 304 308 308 308 306 305 305 304 302 301 300 299 299 298 298 298 298 298 297 297 299 301 301 301 302 302 303 301 294
297 297 300 304 306 306 310 303 305 306 302 305 308 306 303 302 302 305 306 305 304 303 302 301 301 300 299 298 298 298 298 300 301 300 301 302 302 302 301 299 297 293 291 289
297 298 300 303 305 314 308 302 302 303 303 300 302 304 303 301 299 297 303 303 303 302 301 300 300 299 298 298 298 299 300 300 301 300 300 300 300 297 294 292 292 290 290 290
297 298 301 304 306 311 308 300 299 300 306 299 300 302 304 302 302 298 296 301 301 301 300 299 299 298 298 298 299 300 299 299 298 297 298 297 296 295 294 293 292 291 290 290
296 297 301 302 310 312 301 297 297 302 308 298 298 298 300 304 301 296 294 296 295 293 293 294 294 296 296 296 297 296 294 294 292 294 295 294 294 293 292 291 292 293 293 292
297 300 302 304 308 307 297 294 297 304 301 295 297 296 294 294 294 292 292 291 290 289 289 288 286 285 287 290 293 287 286 285 287 290 291 292 292 292 291 291 291 290 290 289
299 301 303 303 303 303 296 294 296 295 294 295 295 294 292 291 290 289 287 287 286 285 284 283 281 279 281 284 284 281 281 283 286 288 288 288 288 288 288 289 289 288 288 287
302 298 299 300 300 297 293 292 292 293 292 292 292 291 290 289 287 286 285 283 282 281 280 279 279 277 275 276 277 277 278 281 283 283 282 283 283 284 284 285 285 284 284 284
297 293 297 299 298 296 292 290 290 290 290 288 288 288 287 286 285 284 283 281 280 278 278 277 276 275 273 273 274 274 277 279 280 280 280 280 281 281 281 281 280 280 280 280
295 293 295 298 297 297 294 289 288 288 287 287 285 284 285 284 282 281 280 279 278 276 275 274 274 273 272 273 275 276 277 278 278 277 277 277 277 277 277 278 278 278 279 278
292 293 297 300 293 293 290 287 286 284 283 283 284 282 280 281 280 278 277 275 275 274 273 272 271 271 270 270 271 273 274 275 275 274 273 273 273 273 273 274 275 275 276 276
Wind_Speed
7 9 17 22 19 22 19 18 19 19 17 15 17 20 26 24 16 17 21 21 23 23 20 28 31 32 32 31 32 31 32 34 29 25 23 17 16 15 15 17 19 21 19 17
9 19 20 18 17 20 23 23 23 22 23 15 22 23 20 22 30 24 22 21 21 20 21 21 29 30 32 32 36 33 32 33 32 27 24 18 17 16 16 20 21 20 20 18
19 22 12 17 20 20 24 23 23 20 15 15 17 22 23 21 17 25 26 23 21 22 22 21 23 30 34 32 33 36 34 33 32 27 23 18 19 20 18 20 21 21 19 17
14 18 18 23 27 20 23 27 21 18 12 10 14 10 20 23 22 18 23 25 24 22 21 21 22 26 33 34 33 32 33 33 34 31 26 28 23 19 16 25 24 22 20 19
19 22 24 23 29 23 21 16 18 18 18 17 18 9 9 20 26 25 26 26 23 23 23 24 23 29 32 30 32 32 32 34 35 33 30 28 23 21 26 28 26 24 22 20
19 23 21 26 23 23 9 12 9 11 12 11 20 12 11 16 25 21 24 27 26 23 22 23 28 27 28 31 33 33 34 35 35 34 31 30 27 25 28 29 29 26 23 22
24 8 6 5 9 13 15 13 5 8 7 10 8 12 18 15 15 24 23 24 26 24 23 22 22 20 28 31 32 33 35 34 35 34 31 31 32 34 35 35 34 32 27 25
10 17 3 2 5 5 19 16 7 9 8 6 14 9 10 24 27 13 21 22 24 25 23 24 24 22 29 32 34 34 33 32 33 33 33 33 38 37 36 34 37 28 30 25
8 10 7 9 12 5 10 13 21 6 1 5 6 7 11 7 11 15 16 16 19 23 21 22 21 25 30 32 34 35 34 31 32 32 30 32 39 38 38 36 30 30 27 27
6 17 11 9 2 12 7 13 9 6 4 7 6 5 6 8 12 7 13 14 18 21 19 19 19 22 26 29 30 31 32 32 32 30 35 38 40 37 36 33 32 30 28 26
17 6 15 13 2 7 5 12 9 7 8 4 4 4 4 2 4 6 8 14 17 19 17 15 15 19 20 21 23 24 27 29 30 30 29 34 35 33 31 32 29 30 29 25
6 6 8 21 9 1 4 7 14 5 8 6 2 1 9 8 9 10 9 14 17 10 10 9 10 13 16 16 20 24 25 26 27 30 31 29 29 30 30 29 30 32 24 21
12 5 9 7 3 8 5 6 3 14 2 3 3 1 9 7 7 7 7 10 10 14 14 12 11 10 12 15 16 19 24 25 25 27 28 26 24 25 26 31 30 27 26 21
12 5 6 6 13 13 11 19 11 3 2 1 3 5 13 10 9 7 7 11 12 11 13 12 11 11 14 18 20 21 21 25 22 23 26 25 24 27 30 29 28 23 18 11
7 6 11 17 14 6 9 17 18 9 10 6 7 6 11 10 8 9 9 14 15 13 14 12 13 12 13 18 21 20 24 27 21 26 28 30 30 28 25 20 17 15 11 12
7 5 14 4 3 6 19 22 17 20 16 11 11 8 11 11 11 14 13 14 16 13 13 13 14 14 13 18 21 27 25 26 28 27 25 29 27 22 17 13 11 10 10 12
7 8 6 6 13 13 1 21 11 7 17 11 10 6 9 15 16 16 15 15 18 14 13 14 15 12 15 22 21 25 23 30 29 29 27 23 17 13 9 9 9 10 10 11
10 11 3 5 9 5 3 16 10 10 21 22 16 10 6 9 17 21 15 16 16 15 13 16 14 21 22 22 27 28 25 28 26 21 16 13 9 6 6 6 7 7 7 8
6 6 5 4 4 2 7 18 9 7 12 22 20 14 8 6 21 20 18 17 18 17 15 21 23 22 23 22 27 30 24 21 17 13 9 4 2 3 3 3 3 4 6 9
6 6 3 5 5 8 8 26 21 3 16 26 21 18 15 7 18 9 16 17 20 26 24 24 25 25 23 22 26 26 22 20 17 13 10 7 6 6 4 2 2 6 9 11
7 5 6 7 4 4 20 29 14 7 7 19 16 14 17 16 8 6 12 17 26 27 27 29 31 27 26 25 26 29 25 23 16 14 12 12 10 9 7 6 7 9 11 12
5 7 5 6 6 7 26 12 9 6 8 9 13 15 17 15 16 17 18 18 22 25 29 29 30 28 32 30 29 24 25 19 18 18 18 17 15 13 11 11 11 11 11 13
4 4 4 6 4 7 10 7 11 9 5 10 13 14 16 17 18 17 17 17 22 24 23 22 24 27 31 33 30 26 23 22 21 22 23 21 20 20 18 16 15 14 14 14
2 4 2 2 4 7 11 11 13 12 12 12 14 15 15 18 16 17 16 15 21 22 22 20 23 27 28 29 30 28 24 24 26 27 26 24 25 22 21 18 17 14 11 10
2 6 4 3 5 5 9 14 12 11 13 14 16 17 16 16 17 15 15 19 20 21 22 25 26 27 28 31 35 33 31 27 28 27 25 21 19 21 20 20 18 17 13 14
2 3 2 3 3 2 5 9 11 12 13 13 13 15 19 19 14 18 18 19 21 22 22 26 26 24 22 28 32 31 29 29 26 22 20 23 19 19 19 18 17 17 21 21
Wind_Direction
208 225 230 235 227 246 268 272 269 267 264 280 266 269 244 237 246 256 233 231 225 223 214 203 196 192 196 197 191 192 187 190 190 192 189 183 183 181 186 190 191 190 187 194
248 249 257 262 257 247 252 257 256 264 261 260 262 270 272 249 234 231 235 230 228 221 214 201 195 191 194 194 193 188 190 187 190 191 192 191 180 183 187 189 189 189 190 192
254 257 270 250 247 243 248 247 250 246 269 263 267 269 265 251 237 230 235 232 226 222 212 200 193 190 190 193 198 187 192 190 187 185 181 171 176 179 182 179 185 186 189 193
267 268 259 246 251 235 246 238 252 259 260 253 199 264 238 222 225 225 233 227 228 223 216 204 198 194 190 192 197 191 190 186 186 181 179 184 181 176 188 185 188 187 191 194
266 288 286 247 234 219 242 250 238 238 237 259 252 267 267 215 219 219 220 224 221 218 211 204 201 196 191 186 193 190 190 187 184 185 186 183 184 189 187 189 186 189 191 194
260 272 266 256 251 222 219 241 188 234 229 237 240 221 252 213 215 210 215 214 218 218 210 206 200 192 189 186 190 186 188 189 186 186 188 190 186 183 185 185 185 187 189 189
311 269 269 265 209 207 197 171 214 219 202 242 223 216 245 260 232 215 212 213 210 209 206 202 194 189 187 186 187 186 188 188 187 189 191 193 190 199 197 194 194 190 188 187
327 316 14 41 250 180 187 186 194 201 203 237 196 231 226 237 239 243 228 218 207 205 200 198 189 186 187 187 186 185 188 186 186 185 189 192 204 201 199 197 199 192 192 186
299 273 270 247 230 208 168 209 227 323 139 230 200 243 260 203 208 217 222 219 211 206 201 196 189 186 187 187 188 186 184 185 187 186 186 192 201 203 203 201 197 196 190 183
279 294 310 319 139 202 201 185 195 224 250 208 195 224 228 190 201 204 227 218 209 201 192 192 186 184 188 185 188 188 185 182 185 186 190 196 200 203 203 200 196 190 183 178
314 268 294 320 339 170 198 189 219 213 242 314 151 217 28 303 278 262 264 232 208 193 186 182 179 171 174 169 176 181 179 175 176 180 182 192 194 196 196 193 190 177 172 169
318 292 294 314 311 266 250 187 210 216 189 215 297 146 3 322 294 274 263 231 197 165 116 116 119 118 123 127 138 144 149 154 165 174 178 177 181 185 185 181 173 158 156 174
343 303 310 1 334 43 330 294 226 234 273 210 223 106 7 350 336 227 136 101 100 106 97 103 94 94 96 94 107 124 143 149 159 165 160 154 154 158 160 158 161 159 171 185
330 281 300 287 290 308 313 333 321 310 274 43 47 334 346 356 15 50 75 97 94 92 102 103 96 91 93 98 97 99 103 125 132 139 138 139 143 148 152 159 160 160 175 189
338 282 304 303 288 295 356 17 24 20 8 38 348 11 354 2 43 60 81 89 88 90 86 94 101 98 103 108 103 114 109 107 126 122 124 128 143 148 143 156 159 166 183 214
338 292 320 297 299 348 30 12 18 26 6 15 10 44 353 2 57 63 68 86 85 83 89 89 88 87 84 85 96 89 99 115 120 113 116 131 127 134 150 160 174 186 194 203
311 319 329 294 329 326 35 10 354 15 28 354 20 351 347 35 44 50 58 73 79 74 76 84 79 83 90 85 93 94 101 115 122 123 125 125 134 138 151 172 177 187 198 217
301 312 261 287 310 56 55 15 332 331 31 12 1 3 18 39 55 44 46 75 81 80 83 81 77 80 79 89 94 105 112 114 116 113 112 115 123 124 153 178 185 197 221 245
271 301 310 333 318 196 24 357 337 339 19 8 4 15 43 62 72 41 24 57 70 74 70 75 77 80 89 94 100 104 94 86 80 76 75 63 87 129 155 181 199 240 261 271
300 262 313 331 354 14 6 337 333 288 27 350 359 17 28 71 68 33 12 44 56 56 56 61 62 64 67 78 92 84 75 68 52 46 51 54 58 67 61 31 314 299 295 292
329 339 7 347 360 47 355 334 318 44 333 326 360 21 45 59 50 41 44 50 57 57 54 59 58 53 49 69 80 66 59 48 41 49 53 52 46 41 20 355 342 332 319 313
334 343 356 340 10 1 358 352 47 316 309 346 19 33 56 60 57 53 51 47 48 50 52 55 62 53 57 64 66 58 48 45 54 58 56 52 47 42 32 20 8 351 338 328
20 19 339 21 17 337 348 350 352 11 30 17 37 49 61 64 60 57 57 52 54 55 56 59 66 62 51 52 55 53 40 50 57 58 54 49 44 38 30 22 12 5 355 346
107 6 0 229 4 0 19 9 16 20 38 41 45 56 63 72 68 70 67 60 60 56 56 59 63 59 51 47 51 50 49 55 55 54 50 46 42 39 37 36 26 20 12 358
343 330 337 75 5 341 28 18 9 21 34 48 54 53 58 67 60 65 63 60 63 63 57 54 56 54 49 48 51 49 49 52 53 52 47 43 37 33 27 26 23 21 17 359
3 346 19 75 345 347 15 0 13 36 38 42 59 58 53 64 70 70 64 59 59 57 53 54 56 59 54 53 53 51 51 51 52 48 39 34 29 24 20 13 11 19 13 10